ECHOSTAR 16

Last updated on Tue Jul 08 2025 00:02:45 GMT+0000 (Coordinated Universal Time)

1 39008U 12065A 25188.05165366 -.00000265 00000+0 00000+0 0 9992 2 39008 0.0186 38.1570 0002153 67.0788 137.1253 1.00270695 46167
UTC large
Height (km)
Speed (km/s)
/
Latitude / Longitude
Inclination (degrees)
Orbital Period (minutes)
Azimuth
Elevation
Range (km)
Doppler Factor

Next 0 passes for location: London (51.5072 / 0.1276)

Sorry there are no passes over London.